Wetbulb
66.80 67.83 68.10 67.80 67.80 68.46 67.84 70.12 70.27 70.44 70.55 69.84 69.54 69.54 69.62 69.84 70.58 70.57 71.44 71.34 70.93 70.49 70.89 71.86 72.41 73.11 71.72 71.21 71.51 70.40 70.29 70.44 71.54 69.63 69.18 69.60 71.17 71.99 71.95 71.43 72.25 72.98 73.61
63.63 66.78 67.64 67.81 66.83 67.12 67.63 69.49 70.37 70.72 70.57 70.69 70.29 70.26 69.85 70.19 70.87 71.22 71.30 71.20 70.59 70.34 70.77 72.01 71.65 72.61 71.94 71.56 72.14 71.93 70.84 70.27 71.03 69.55 67.05 64.42 66.68 68.42 70.12 71.31 70.39 71.38 73.45
61.95 64.63 66.57 67.87 67.43 66.34 67.29 68.89 70.28 70.74 70.96 70.54 69.88 69.81 70.59 70.50 70.17 70.52 70.77 71.47 70.74 70.65 71.09 72.43 71.74 71.78 71.52 69.84 70.32 72.51 71.10 70.04 70.05 69.97 67.57 65.71 65.05 67.16 70.04 69.90 70.70 70.89 72.21
62.52 64.60 65.76 67.47 68.34 67.86 68.44 68.78 70.17 70.79 71.11 70.34 69.51 69.30 68.66 68.47 69.18 69.85 70.86 71.59 71.02 70.71 70.99 71.63 72.09 71.42 72.23 71.54 72.16 73.06 71.86 70.31 70.04 70.62 70.95 69.79 68.94 68.05 67.57 69.59 70.28 70.56 70.32
62.79 64.15 65.84 67.21 68.72 69.65 69.54 69.13 69.63 70.55 71.24 70.62 70.44 69.47 68.82 69.48 69.81 69.92 70.32 70.92 71.95 70.90 71.75 72.65 72.26 72.00 71.93 72.44 72.94 71.26 71.62 71.40 71.08 70.46 70.88 69.94 68.73 69.02 68.08 65.74 66.93 68.96 70.00
62.98 64.87 66.46 67.80 68.18 69.40 69.65 69.65 69.32 69.78 70.46 70.67 70.69 69.65 69.39 68.56 68.65 68.87 69.07 69.84 71.15 71.50 71.48 72.14 73.07 73.03 72.82 72.21 72.36 71.84 70.58 70.35 71.78 71.40 71.66 70.86 70.43 69.45 67.73 66.26 66.08 66.07 68.97
61.99 63.98 65.28 66.38 67.43 68.05 68.76 69.10 68.56 68.64 69.64 69.78 70.42 69.90 69.82 69.00 68.81 69.20 69.08 69.28 69.68 70.36 71.04 71.51 71.53 71.89 72.55 73.09 72.78 71.48 70.48 68.07 70.16 71.71 71.11 71.35 70.69 70.62 69.19 67.85 67.11 67.16 67.62
62.64 62.54 65.61 66.54 67.43 68.14 68.39 68.88 68.06 68.34 68.92 69.52 69.95 70.24 70.26 69.22 69.29 69.63 69.57 69.68 69.80 70.43 71.67 71.65 71.99 72.05 72.51 72.52 73.03 72.24 70.72 70.00 68.98 71.04 71.45 70.95 71.04 72.00 71.62 70.12 68.66 67.21 65.52
62.74 63.57 65.72 66.57 66.91 67.67 68.06 68.56 68.13 68.62 69.19 69.29 69.80 69.86 70.00 69.73 69.50 69.90 69.98 70.35 70.58 70.74 71.55 72.04 72.10 71.88 72.15 72.50 72.86 72.18 71.63 71.74 71.70 71.33 70.81 70.42 70.76 72.31 72.47 72.17 70.56 69.30 66.35
61.48 64.12 64.80 66.26 67.00 67.82 68.42 68.52 68.39 68.60 69.02 69.52 69.95 70.08 69.83 70.03 70.27 69.87 69.94 70.25 71.13 71.39 71.57 71.44 71.84 72.01 72.14 72.37 71.73 71.36 72.44 71.93 71.81 71.41 71.08 71.40 71.84 71.87 72.02 71.72 72.46 70.60 69.39
60.71 62.73 64.02 65.12 67.11 68.51 68.38 68.21 68.86 69.08 69.20 69.41 69.84 69.94 69.91 70.01 70.44 69.88 70.22 70.57 71.10 71.24 71.22 71.75 71.69 71.18 71.60 72.52 71.10 70.62 70.80 71.23 71.49 71.86 71.86 71.84 72.01 72.17 71.94 71.23 71.59 71.33 70.05
60.86 61.86 63.19 63.96 63.61 64.47 64.92 66.85 68.44 69.05 70.14 70.76 70.51 70.40 70.51 70.51 70.25 70.05 70.38 70.60 70.15 71.04 71.41 71.53 71.44 71.33 71.16 71.50 70.78 70.62 71.18 70.02 70.81 71.33 71.57 71.49 71.28 71.70 71.75 71.00 71.17 71.98 71.49
60.82 61.47 60.34 61.20 64.96 64.21 64.29 63.70 63.62 64.03 64.70 65.83 69.05 70.97 71.37 71.31 70.97 70.83 70.99 71.36 71.15 71.05 70.44 70.99 70.98 71.16 71.54 71.48 71.43 71.72 70.90 70.75 71.26 71.83 71.59 71.96 71.34 71.70 71.33 71.84 71.50 71.88 71.85
60.78 61.47 61.80 60.91 61.02 64.43 65.23 65.19 65.24 64.89 65.22 65.24 65.75 65.95 67.29 69.90 72.18 72.46 72.35 71.59 71.59 71.28 71.07 71.04 71.16 71.39 71.82 71.65 71.53 71.13 71.20 71.00 71.37 71.72 72.04 72.06 70.83 71.16 71.65 71.47 72.01 71.29 70.77
60.58 61.04 61.73 62.18 62.71 62.70 65.08 65.21 66.13 65.33 63.94 64.01 64.19 64.84 66.27 66.82 67.07 69.78 72.86 72.93 72.43 72.01 71.66 71.03 71.23 71.68 71.41 71.13 71.35 71.53 71.62 71.47 71.27 71.88 72.21 72.49 71.98 70.18 70.39 72.16 72.25 70.96 70.22
58.75 61.04 60.95 61.51 61.66 63.34 63.53 64.95 65.35 64.56 64.32 63.88 63.37 63.71 64.95 65.31 64.73 64.49 69.33 73.07 72.56 72.44 72.29 71.32 71.42 71.20 71.90 68.65 68.16 71.13 71.75 71.98 71.83 71.44 72.05 72.55 70.76 70.52 68.52 68.06 68.50 70.66 70.92
57.04 58.49 59.10 60.70 61.36 61.94 64.07 62.32 62.67 63.78 64.70 62.16 61.91 62.26 62.53 62.88 62.53 63.89 66.38 69.28 72.88 72.88 72.16 71.84 71.61 71.21 71.52 66.56 66.82 68.75 72.06 71.75 71.71 71.63 71.55 71.44 72.25 71.02 73.17 69.22 67.27 67.20 66.42
55.40 56.50 57.61 58.77 59.54 62.42 63.02 63.49 63.14 62.71 62.05 61.27 62.46 62.20 62.01 61.94 62.48 63.41 64.82 67.49 71.83 72.42 72.27 71.99 71.81 71.63 71.62 65.53 64.95 67.11 71.98 71.84 72.01 72.28 72.36 72.28 72.78 72.81 72.81 73.08 72.58 72.51 72.94
55.53 56.22 57.30 58.22 58.51 59.82 62.06 62.89 62.81 62.75 63.16 63.53 63.03 63.51 64.42 64.36 65.43 68.15 66.35 67.20 70.35 72.39 72.38 72.34 71.83 71.47 71.74 63.75 63.18 65.73 69.99 70.54 71.04 71.63 72.15 72.23 72.39 68.21 65.05 72.14 71.83 72.02 72.27
55.88 55.87 56.68 57.18 57.19 57.74 59.13 61.59 62.86 63.11 62.85 63.50 63.89 64.80 65.12 65.72 66.31 65.80 67.25 67.97 71.10 72.05 72.46 72.28 72.12 69.60 71.07 60.76 61.46 66.35 70.18 69.68 69.71 70.43 70.56 65.85 69.83 64.18 61.80 70.12 70.59 70.15 71.16
55.01 56.06 56.16 55.69 56.72 57.28 57.97 58.35 61.10 62.09 63.03 63.75 64.90 65.68 65.63 66.46 67.16 63.75 63.49 63.13 64.67 69.07 71.60 71.64 71.96 69.98 67.52 64.74 60.37 62.04 69.09 69.45 68.73 69.27 70.64 70.99 61.88 59.85 58.29 60.40 71.09 70.00 71.69
53.52 54.70 54.26 55.54 56.67 57.30 57.12 56.78 57.08 59.54 61.15 62.84 63.87 64.04 65.95 67.47 68.01 65.33 64.79 63.85 64.70 64.82 62.29 69.39 69.32 67.96 66.04 61.72 58.61 60.34 62.58 63.22 64.06 65.29 69.95 71.03 60.64 57.56 57.02 58.81 60.78 59.74 61.77
51.89 53.22 54.29 54.26 55.89 55.91 56.35 56.13 57.55 58.31 58.86 60.20 61.39 62.27 63.42 66.38 66.89 66.58 65.80 62.66 64.49 62.83 61.22 62.92 64.65 65.23 64.46 64.88 59.23 58.70 57.20 59.10 63.92 67.18 65.79 60.46 55.75 55.57 57.20 56.80 58.07 57.68 64.68
52.57 52.95 52.80 53.01 52.32 53.98 55.20 56.37 57.53 57.80 57.91 58.35 59.95 61.35 61.86 62.70 64.72 66.66 66.52 65.73 64.76 62.82 61.46 62.93 62.23 63.65 63.89 64.42 64.63 64.43 63.71 58.37 62.51 61.79 64.23 62.17 61.69 60.28 62.03 62.76 60.96 64.44 66.68
52.81 53.14 52.89 52.66 52.45 53.48 53.94 55.41 55.81 56.65 56.83 58.33 59.97 61.27 61.89 62.58 61.59 62.70 62.92 64.89 65.86 63.42 63.67 64.64 64.44 63.23 62.53 63.22 60.41 60.25 64.33 65.16 60.87 61.42 63.95 63.03 64.73 64.10 65.32 65.48 64.96 63.28 62.87
52.07 51.97 52.50 52.54 52.97 53.49 53.74 54.14 55.16 56.01 56.63 57.42 59.21 60.62 60.87 61.28 61.75 61.20 61.83 57.14 54.84 53.76 51.22 51.40 59.88 63.55 58.23 55.75 53.03 51.04 50.67 49.40 51.22 62.78 63.16 63.41 63.79 64.15 64.77 64.38 64.78 63.19 62.09
MSLP
1009.65 1010.41 1011.25 1011.85 1012.57 1013.35 1014.01 1014.27 1014.86 1015.36 1015.99 1016.46 1016.96 1017.20 1017.24 1017.40 1017.61 1017.60 1017.63 1017.74 1018.06 1018.20 1018.56 1018.61 1018.66 1018.72 1018.82 1019.02 1019.25 1019.27 1019.26 1019.24 1019.34 1019.31 1018.94 1018.66 1018.50 1018.43 1018.45 1018.40 1018.36 1018.29 1018.27
1009.21 1009.73 1010.58 1011.31 1011.90 1012.51 1013.21 1013.89 1014.21 1014.89 1015.30 1015.83 1016.31 1016.51 1016.62 1016.82 1017.02 1017.23 1017.40 1017.57 1017.85 1018.02 1018.20 1018.35 1018.59 1018.64 1018.81 1018.98 1019.04 1019.14 1019.24 1019.24 1019.36 1019.51 1019.49 1019.21 1018.82 1018.44 1018.31 1018.38 1018.32 1018.19 1018.17
1008.55 1009.30 1009.85 1010.48 1011.25 1011.84 1012.34 1013.12 1013.57 1014.23 1014.74 1015.19 1015.83 1016.41 1016.65 1016.81 1017.04 1017.23 1017.33 1017.30 1017.62 1017.88 1018.10 1018.20 1018.28 1018.52 1018.61 1018.88 1018.99 1019.10 1019.28 1019.44 1019.44 1019.52 1019.68 1019.53 1019.25 1018.98 1018.46 1018.21 1018.21 1018.23 1018.25
1008.60 1008.91 1009.23 1009.90 1010.28 1010.82 1011.66 1012.19 1012.86 1013.63 1014.22 1014.75 1015.43 1015.83 1016.08 1016.55 1016.66 1016.70 1016.76 1016.94 1017.21 1017.52 1017.85 1018.16 1018.22 1018.32 1018.49 1018.77 1018.99 1019.06 1019.27 1019.44 1019.31 1019.31 1019.20 1019.28 1019.22 1019.09 1018.83 1018.45 1018.10 1018.08 1018.04
1007.96 1008.13 1008.37 1008.72 1009.49 1010.42 1010.99 1011.61 1012.32 1013.09 1013.66 1014.28 1014.70 1015.28 1015.71 1015.87 1016.21 1016.50 1016.69 1016.83 1017.10 1017.31 1017.45 1017.83 1018.19 1018.32 1018.42 1018.60 1018.72 1018.91 1019.18 1019.39 1019.33 1019.17 1019.01 1019.13 1019.11 1019.07 1018.90 1018.76 1018.45 1018.03 1017.81
1007.90 1008.07 1008.50 1009.14 1009.52 1010.10 1010.74 1011.41 1012.09 1012.59 1013.17 1013.78 1014.32 1014.80 1015.23 1015.61 1016.07 1016.37 1016.64 1016.74 1016.86 1017.21 1017.39 1017.68 1017.90 1018.09 1018.27 1018.54 1018.59 1018.74 1019.00 1019.23 1019.34 1019.23 1019.01 1018.97 1019.09 1019.03 1018.91 1018.90 1018.81 1018.52 1017.87
1008.39 1007.87 1007.98 1008.46 1008.79 1009.36 1010.18 1011.01 1011.70 1012.41 1012.88 1013.49 1014.03 1014.48 1014.87 1015.35 1015.63 1015.80 1016.09 1016.46 1016.68 1016.86 1016.92 1017.26 1017.76 1018.01 1017.95 1018.00 1018.28 1018.60 1018.84 1019.07 1019.26 1019.16 1019.02 1019.03 1018.93 1019.02 1019.01 1018.93 1018.87 1018.78 1018.32
1008.93 1008.12 1008.02 1008.31 1009.00 1009.66 1010.02 1010.52 1011.33 1012.06 1012.74 1013.25 1013.64 1014.14 1014.54 1014.87 1015.13 1015.38 1015.94 1016.09 1016.22 1016.27 1016.15 1016.28 1016.70 1017.15 1017.45 1017.59 1017.78 1018.21 1018.60 1018.74 1018.94 1019.01 1019.01 1018.99 1018.95 1018.96 1018.99 1018.94 1018.79 1018.83 1018.79
1009.96 1008.52 1008.23 1008.76 1009.11 1009.44 1010.10 1010.93 1011.47 1011.89 1012.43 1012.84 1013.29 1013.79 1014.18 1014.61 1014.82 1014.93 1015.31 1015.60 1015.59 1015.71 1015.85 1015.79 1016.11 1016.33 1016.62 1016.90 1017.31 1017.74 1017.99 1018.25 1018.36 1018.57 1018.78 1018.92 1018.82 1018.86 1018.86 1018.86 1018.74 1018.65 1018.87
1011.56 1010.44 1009.58 1009.04 1009.20 1009.34 1009.96 1010.67 1011.45 1012.04 1012.50 1012.67 1013.08 1013.38 1013.82 1014.01 1014.26 1014.51 1014.71 1014.66 1014.81 1015.22 1015.30 1015.59 1015.89 1015.99 1016.24 1016.50 1016.89 1017.25 1017.49 1017.84 1017.91 1018.05 1018.28 1018.47 1018.51 1018.53 1018.57 1018.65 1018.71 1018.76 1018.75
1013.05 1012.13 1011.24 1010.54 1010.12 1009.96 1010.20 1010.75 1011.21 1011.71 1012.13 1012.49 1012.89 1013.22 1013.65 1013.77 1014.10 1014.24 1014.30 1014.18 1014.47 1014.61 1014.85 1014.81 1015.03 1015.48 1016.06 1016.30 1016.58 1016.84 1017.27 1017.45 1017.54 1017.61 1017.76 1017.87 1018.06 1018.16 1018.24 1018.39 1018.48 1018.41 1018.54
1014.44 1013.36 1012.79 1012.14 1011.61 1011.35 1011.51 1011.62 1011.98 1012.13 1012.25 1012.20 1012.23 1012.64 1013.05 1013.27 1013.48 1013.54 1013.80 1014.19 1014.22 1014.06 1013.86 1014.18 1014.47 1014.67 1015.39 1015.93 1016.14 1016.16 1016.61 1017.17 1016.98 1017.06 1017.35 1017.35 1017.45 1017.71 1017.91 1018.08 1018.17 1018.18 1018.19
1014.73 1014.20 1013.82 1013.24 1012.98 1012.95 1012.62 1012.34 1012.68 1013.69 1014.06 1013.40 1013.01 1012.51 1012.43 1012.96 1012.94 1012.90 1013.01 1013.28 1013.50 1013.48 1013.78 1013.88 1013.87 1013.93 1014.11 1014.89 1015.39 1015.70 1015.97 1016.31 1016.36 1016.31 1016.59 1016.66 1016.97 1017.09 1017.38 1017.68 1017.88 1018.01 1017.96
1015.24 1014.85 1014.30 1014.28 1013.80 1013.51 1013.38 1013.13 1012.65 1009.99 1014.31 1014.13 1013.62 1013.10 1013.25 1013.27 1012.77 1011.97 1011.99 1012.13 1012.30 1012.71 1013.09 1013.24 1013.41 1013.37 1013.50 1013.85 1014.48 1015.04 1015.29 1015.49 1015.43 1015.54 1015.77 1015.94 1016.27 1016.51 1016.81 1017.14 1017.29 1017.58 1017.55
1016.02 1015.48 1015.01 1014.60 1013.97 1013.36 1013.32 1013.56 1013.00 1011.85 1011.88 1012.55 1012.87 1012.96 1012.63 1012.47 1012.84 1012.34 1010.92 1010.57 1010.96 1011.48 1011.88 1012.32 1012.57 1012.80 1012.78 1012.84 1013.48 1014.05 1014.40 1014.55 1014.61 1014.67 1014.97 1015.15 1015.32 1015.64 1015.93 1016.35 1016.55 1017.02 1017.19
1016.61 1016.21 1015.42 1014.61 1014.07 1013.61 1013.08 1013.11 1012.83 1012.28 1012.36 1012.21 1011.94 1011.94 1012.25 1012.14 1011.77 1011.97 1010.98 1009.69 1010.03 1010.32 1010.85 1011.32 1011.80 1011.93 1011.90 1011.84 1012.18 1012.98 1013.63 1013.68 1013.77 1013.88 1014.09 1014.29 1014.52 1014.83 1015.15 1015.44 1015.67 1016.01 1016.33
1017.12 1016.66 1016.15 1015.42 1014.48 1013.82 1013.30 1012.95 1012.69 1012.56 1012.77 1012.48 1012.76 1011.73 1011.33 1011.46 1011.33 1011.20 1010.08 1009.24 1008.83 1009.52 1009.68 1010.22 1010.70 1011.08 1011.14 1011.17 1011.41 1012.00 1012.51 1012.82 1012.85 1013.04 1013.30 1013.53 1013.70 1013.94 1014.30 1014.53 1014.68 1014.90 1015.11
1017.02 1016.72 1016.32 1015.62 1014.81 1013.90 1013.16 1012.84 1012.40 1012.12 1012.24 1012.26 1011.67 1011.79 1011.31 1010.91 1010.44 1009.55 1008.77 1008.45 1008.06 1008.18 1008.84 1008.87 1009.31 1009.98 1010.23 1010.42 1010.73 1011.22 1011.99 1012.33 1012.30 1012.45 1012.69 1012.89 1013.11 1013.31 1013.59 1013.97 1014.08 1014.15 1014.17
1017.07 1016.55 1016.16 1015.61 1014.77 1014.11 1013.35 1012.69 1012.23 1012.02 1011.91 1011.47 1011.31 1010.43 1009.55 1009.64 1008.94 1008.00 1007.60 1007.31 1007.11 1006.92 1007.06 1007.26 1007.74 1008.60 1009.18 1009.79 1010.16 1010.85 1011.31 1011.54 1011.69 1011.84 1012.09 1012.34 1012.51 1012.55 1012.78 1013.36 1013.44 1013.40 1013.25
1016.78 1016.13 1015.45 1015.23 1014.70 1013.76 1013.19 1012.73 1012.24 1011.92 1011.32 1010.69 1010.13 1009.70 1009.56 1009.28 1008.54 1007.86 1007.30 1007.04 1006.44 1006.37 1006.78 1006.28 1006.07 1006.75 1007.86 1008.74 1009.10 1009.99 1010.62 1011.03 1010.94 1010.99 1011.22 1011.40 1011.59 1011.83 1012.12 1012.72 1012.81 1012.83 1012.49
1016.24 1015.64 1015.19 1014.75 1014.31 1013.70 1013.23 1012.75 1012.16 1011.74 1011.23 1010.64 1009.97 1009.52 1009.14 1008.48 1007.92 1007.60 1007.33 1007.33 1006.90 1006.47 1006.32 1005.71 1005.86 1006.61 1006.69 1007.93 1008.10 1009.21 1009.34 1009.53 1009.75 1009.84 1010.09 1010.37 1010.71 1011.30 1011.69 1012.05 1012.16 1012.04 1011.98
1015.75 1015.26 1014.75 1014.25 1013.84 1013.65 1013.43 1012.97 1012.30 1011.56 1011.00 1010.45 1009.86 1009.14 1008.87 1008.19 1007.62 1007.51 1007.35 1007.21 1007.23 1006.75 1006.64 1004.76 1005.76 1006.71 1007.04 1007.05 1007.45 1008.00 1007.79 1007.88 1008.53 1008.69 1009.10 1009.80 1010.26 1010.73 1011.12 1011.58 1011.66 1011.61 1011.87
1015.45 1014.92 1014.43 1014.02 1013.66 1013.46 1013.25 1012.83 1012.15 1011.44 1010.75 1010.16 1009.41 1008.89 1008.49 1007.66 1007.29 1007.10 1006.74 1007.24 1006.65 1005.09 1005.85 1005.67 1005.26 1006.42 1006.90 1007.18 1007.45 1008.13 1008.50 1008.42 1008.41 1008.95 1009.19 1009.74 1010.21 1010.70 1010.81 1010.95 1011.01 1011.19 1011.54
1015.13 1014.59 1014.10 1013.59 1013.11 1012.99 1012.80 1012.39 1011.86 1011.41 1010.92 1010.23 1009.49 1008.99 1008.49 1007.78 1007.17 1006.39 1006.13 1006.03 1005.58 1005.05 1004.09 1004.38 1005.07 1007.36 1005.64 1006.58 1007.03 1007.06 1007.65 1008.53 1008.85 1008.94 1009.44 1009.63 1009.62 1009.91 1010.18 1010.46 1010.67 1010.95 1011.04
1014.97 1014.43 1013.91 1013.27 1012.67 1012.38 1012.24 1011.90 1011.32 1011.15 1010.78 1010.12 1009.59 1009.06 1008.52 1007.72 1007.02 1006.29 1005.93 1005.51 1004.18 1003.98 1003.39 1003.91 1006.35 1006.49 1004.04 1005.77 1006.68 1007.25 1007.36 1007.92 1008.39 1009.33 1009.59 1009.54 1009.44 1009.41 1009.58 1009.73 1009.89 1010.15 1010.61
1014.76 1014.21 1013.77 1013.20 1012.41 1011.74 1011.23 1011.01 1010.66 1010.53 1010.21 1009.74 1008.97 1008.69 1008.27 1007.75 1007.25 1006.65 1006.13 1006.00 1005.70 1005.20 1004.86 1005.77 1006.18 1006.01 1006.76 1007.46 1007.45 1006.82 1006.92 1007.93 1008.68 1008.76 1008.87 1008.79 1008.74 1008.78 1008.97 1009.15 1009.32 1009.66 1009.99
Wind_Speed
14 16 15 17 15 13 11 12 12 10 8 4 3 2 5 3 2 3 6 6 5 6 5 3 3 2 3 3 5 3 3 2 1 1 2 2 3 4 4 3 3 3 4
8 15 16 17 18 17 15 13 13 11 10 7 4 3 3 2 2 3 5 5 5 5 5 5 4 4 3 3 2 2 1 1 3 1 1 3 2 2 4 4 5 6 3
14 13 17 18 17 18 17 15 15 13 11 8 5 3 3 2 1 2 3 4 6 6 5 5 4 3 2 3 2 2 2 2 2 5 1 1 2 2 1 4 4 5 4
9 10 16 17 19 18 16 16 15 14 12 11 8 7 5 6 4 4 3 4 6 6 6 5 5 5 3 3 3 3 2 2 2 2 2 1 1 1 2 1 3 3 5
14 15 18 19 17 16 16 16 15 13 13 13 12 9 6 5 2 2 5 4 4 6 6 6 5 4 3 3 4 3 3 1 1 2 1 1 1 0 1 1 3 1 1
8 8 11 11 12 12 14 14 14 13 12 12 12 12 12 7 5 4 4 4 3 3 5 5 4 4 3 4 3 3 3 2 2 2 1 1 1 1 0 1 1 2 3
9 7 13 13 14 16 15 13 14 13 12 12 13 11 11 10 10 9 6 5 4 3 6 6 5 4 5 5 3 4 4 3 3 3 2 1 1 1 1 0 0 1 2
18 7 8 10 10 11 13 13 13 12 11 11 12 10 10 7 7 7 4 5 5 6 6 8 7 8 7 7 6 4 4 4 4 5 4 2 2 2 2 2 2 0 2
22 12 7 6 7 8 9 6 8 9 10 11 9 9 8 8 8 7 7 6 6 6 6 7 8 9 9 8 7 6 6 5 5 5 4 3 3 3 3 2 2 2 1
20 18 12 4 5 5 7 8 7 6 4 7 7 8 8 8 9 7 11 11 9 9 7 7 7 7 9 9 7 6 6 6 5 5 5 4 3 4 4 3 2 2 2
17 15 14 13 10 6 7 7 6 7 6 7 5 5 5 5 6 8 9 11 8 9 10 9 8 9 8 8 7 4 5 8 7 5 5 5 4 4 4 4 3 3 3
13 13 12 13 12 11 12 11 8 5 2 5 7 6 6 7 8 9 8 6 9 9 10 9 9 9 8 7 8 7 7 8 9 8 6 7 5 6 5 4 5 4 4
15 13 13 11 9 8 8 12 13 12 11 10 7 2 3 6 8 9 9 9 10 9 8 9 10 10 9 9 9 9 11 12 13 9 8 8 6 5 5 5 5 4 4
11 11 12 9 8 6 1 2 1 13 5 5 2 1 4 5 8 10 11 10 11 11 10 10 11 10 8 9 9 10 10 10 10 10 9 8 7 8 6 6 6 5 5
13 13 11 9 7 7 6 4 7 5 10 5 7 6 6 7 8 11 11 11 12 11 11 11 11 9 9 9 10 9 10 10 10 9 8 9 10 12 9 6 6 5 4
11 10 15 14 11 10 9 6 5 5 7 6 6 6 9 10 8 11 11 9 10 12 11 12 12 11 8 12 16 13 10 10 10 10 10 10 13 12 13 13 10 8 6
10 9 10 13 14 11 6 8 6 3 5 6 8 7 9 11 11 13 9 9 11 11 13 13 12 12 12 15 16 16 9 9 10 10 9 8 8 10 8 11 13 11 13
12 10 7 11 11 12 12 7 7 5 4 6 6 9 9 11 12 11 10 11 10 14 13 13 14 12 11 16 17 16 10 8 9 9 9 9 9 9 9 8 8 8 8
11 10 6 8 10 10 10 11 11 6 6 8 9 10 8 10 10 11 11 12 13 14 16 13 14 14 12 15 13 12 9 9 9 8 9 8 9 10 13 9 9 9 10
9 11 13 9 7 11 8 9 11 9 11 11 11 10 9 9 8 10 5 10 12 12 9 13 14 16 13 16 19 16 8 8 8 8 9 14 12 11 12 10 9 9 10
12 12 11 10 10 9 7 8 8 9 10 11 9 10 11 10 5 5 4 4 5 6 8 11 9 10 14 14 20 18 11 11 9 8 8 8 13 13 11 13 8 10 7
14 14 12 11 10 8 7 9 9 10 11 10 9 9 8 10 6 7 6 7 7 2 11 1 5 8 10 15 18 21 20 15 11 9 6 5 10 10 11 9 13 13 6
11 12 10 12 11 11 7 8 10 9 12 11 11 10 10 6 7 9 4 5 5 6 4 7 8 6 9 10 6 6 0 9 5 5 5 5 1 4 5 8 10 6 6
12 11 11 11 14 12 10 9 9 7 9 11 11 10 8 7 4 4 4 5 4 4 4 7 6 11 8 8 5 4 2 6 4 4 2 4 7 8 5 3 4 3 4
12 12 12 13 15 13 11 11 11 8 8 9 8 8 6 6 4 4 4 8 5 4 2 6 4 5 2 8 8 6 3 4 3 7 4 4 4 4 4 3 4 4 3
12 12 13 14 15 15 13 12 11 9 8 9 6 4 4 4 4 3 4 5 7 4 3 4 7 8 9 11 10 9 9 6 8 3 5 4 4 4 4 4 4 4 6
Wind_Direction
204 193 185 187 187 188 178 179 179 187 174 154 165 178 200 183 199 212 221 207 184 194 200 201 182 210 194 187 191 194 231 248 210 292 312 340 324 274 280 260 273 265 249
190 185 182 185 187 186 190 183 187 184 187 178 174 177 173 180 182 197 209 192 179 195 203 193 196 205 183 174 193 205 164 323 191 320 30 354 331 286 253 248 256 274 255
208 178 186 186 186 190 188 187 189 184 192 177 135 90 73 46 117 215 208 205 180 190 203 213 204 206 197 185 203 222 191 196 213 239 242 62 266 339 333 258 251 266 258
220 194 186 186 190 193 191 189 187 185 187 173 173 172 176 185 199 197 195 202 179 192 192 215 216 214 193 198 186 177 204 193 203 209 211 231 192 209 4 326 306 255 248
213 202 192 194 188 182 186 190 189 188 186 184 185 188 186 193 168 180 200 218 186 193 193 200 216 227 214 208 200 160 175 224 196 229 242 99 51 45 101 14 325 302 9
217 196 192 185 186 183 183 184 185 190 182 182 191 193 196 181 170 187 198 209 209 181 204 210 206 212 227 217 220 190 202 218 235 227 256 213 201 261 83 102 293 299 316
331 192 177 183 178 182 181 180 182 190 186 186 195 199 201 193 199 198 198 183 198 204 204 186 201 204 214 224 221 217 203 206 231 236 244 258 232 212 108 127 235 320 319
347 283 195 178 180 189 183 177 178 187 187 188 201 203 208 202 206 204 192 209 204 209 190 196 195 204 204 214 199 196 226 209 211 228 233 251 238 209 201 205 183 34 310
357 357 122 156 171 184 176 182 174 184 185 196 198 203 205 206 202 193 193 208 207 216 205 202 202 207 212 208 196 211 214 206 212 216 225 232 255 230 229 216 214 152 252
3 8 8 134 153 153 136 146 158 170 177 199 200 209 207 209 213 190 202 206 204 205 198 209 215 215 213 213 193 206 212 207 219 216 212 218 243 234 225 223 208 191 186
3 10 18 24 32 61 108 134 135 141 171 170 193 205 215 222 220 226 221 221 211 204 206 203 204 212 220 208 206 192 243 221 225 226 212 227 211 234 230 224 222 214 182
8 14 16 25 34 58 64 56 40 64 165 177 179 190 204 201 207 217 221 224 231 224 206 203 200 202 206 210 210 189 224 232 226 216 213 231 225 219 215 223 233 233 208
9 17 15 14 17 11 50 82 77 47 4 16 22 358 215 217 222 224 220 213 228 226 230 224 215 210 200 190 200 201 204 220 229 211 207 219 211 221 222 225 237 242 244
6 4 13 358 352 320 320 56 249 95 272 260 278 311 300 289 249 215 217 217 218 223 223 216 224 218 201 201 203 203 203 214 216 211 204 210 206 222 217 222 222 235 238
358 352 348 345 332 342 323 291 278 205 193 213 232 255 252 237 259 272 226 215 210 218 214 214 215 213 201 200 199 205 211 210 214 212 206 208 204 213 212 207 224 209 233
341 341 339 337 339 333 331 322 289 219 202 239 305 269 248 256 250 258 265 218 212 214 211 208 213 210 214 197 189 192 205 211 213 213 210 210 201 217 222 220 218 191 207
338 336 331 324 321 319 297 306 308 298 279 300 245 239 251 242 239 250 244 243 220 217 209 209 203 217 216 199 196 196 204 211 212 215 215 217 220 205 221 224 225 226 216
329 327 315 316 314 306 312 277 288 282 242 242 263 251 243 241 242 249 247 247 227 209 212 203 198 209 216 200 199 196 209 215 214 211 211 207 211 211 212 221 232 232 231
301 304 294 283 299 300 290 299 295 284 273 281 274 289 315 303 308 289 246 243 231 211 205 202 195 198 213 201 196 171 188 204 216 217 222 218 224 216 205 218 233 239 242
298 301 307 297 288 303 309 303 285 296 295 294 294 294 284 287 306 348 310 267 244 226 218 206 199 190 192 178 167 171 178 191 202 206 214 213 221 213 194 206 220 237 244
303 302 302 297 299 294 306 307 306 292 288 294 285 289 275 274 271 310 306 308 349 317 219 206 202 191 178 180 171 168 179 203 200 194 201 204 200 226 213 212 223 235 235
308 305 302 301 303 310 309 309 302 302 309 307 291 294 276 256 205 229 237 278 235 135 31 317 185 192 191 179 179 186 199 200 195 195 180 182 191 211 222 203 227 238 232
300 302 299 301 301 311 303 301 304 309 314 316 316 308 302 292 226 238 200 252 223 146 100 11 48 295 198 203 214 258 220 128 116 136 141 129 187 287 275 252 246 203 215
301 296 296 297 298 302 304 293 295 300 301 307 307 302 295 303 328 335 293 233 223 104 73 97 78 263 217 192 210 231 147 110 97 113 151 210 185 196 214 209 212 219 212
311 310 303 297 296 301 299 297 297 292 282 289 287 289 280 296 335 334 315 319 346 321 34 35 270 193 281 245 199 175 188 260 182 161 185 196 195 202 200 205 200 179 175
312 311 308 305 304 298 296 293 290 291 286 289 285 275 271 285 294 322 339 267 277 265 244 210 205 200 205 207 218 220 231 247 161 166 200 212 207 208 223 222 209 188 198